Date String (YYYY-MM-DD hh:mm:ss) UTC,Instrument flags,Ambient pressure (hPa),Sample flow (lpm),Bypass flow (lpm),Sample temperature (°C),Ambient temperature (°C),ASC tube jacket temperature (°C),LED temperature (°C),Box temperature (°C),Sample RH (%),Span deviation,Mass concentration (μg/m³),Mass concentration (μg/m³),Mass concentration (μg/m³)
DateTimeUTC,F1_M11,P_M11,Q1_M11,Q2_M11,T1_M11,T2_M11,T3_M11,T4_M11,T5_M11,U1_M11,ZSPAN_M11,X2_M11,X0_M11,X1_M11
2022-07-08 01:00:00,,0830.4,5.00,0.00,29.4,28.1,00.0,38.1,31.4,32.3,0000.0,0003.37,0008.82,0002.18
2022-07-08 01:01:00,,0830.4,5.01,0.00,29.4,28.3,00.0,38.1,31.4,32.7,0000.0,0003.42,0008.90,0002.21
2022-07-08 01:02:00,,0830.4,4.99,0.00,29.5,28.4,00.0,38.1,31.5,33.4,0000.0,0003.46,0009.18,0002.26
2022-07-08 01:03:00,,0830.4,5.00,0.00,29.5,28.3,00.0,38.1,31.5,33.5,0000.0,0003.52,0009.06,0002.31
2022-07-08 01:04:00,,0830.4,5.00,0.00,29.5,27.6,00.0,38.0,31.4,33.3,0000.0,0003.56,0009.27,0002.37
2022-07-08 01:05:00,,0830.4,4.99,0.00,29.5,27.2,00.0,38.0,31.3,33.6,0000.0,0003.61,0009.52,0002.41
2022-07-08 01:06:00,,0830.4,5.00,0.00,29.4,27.1,00.0,38.0,31.2,33.2,0000.0,0003.65,0010.00,0002.45
2022-07-08 01:07:00,,0830.4,5.00,0.00,29.3,27.2,00.0,38.0,31.1,33.4,0000.0,0003.70,0010.91,0002.51
2022-07-08 01:08:00,,0830.4,5.00,0.00,29.3,27.3,00.0,38.0,31.2,33.4,0000.0,0003.77,0011.22,0002.56
2022-07-08 01:09:00,,0830.3,5.01,0.00,29.3,27.5,00.0,38.0,31.2,33.5,0000.0,0003.79,0010.99,0002.61
2022-07-08 01:10:00,,0830.3,5.00,0.00,29.3,27.7,00.0,38.1,31.3,33.5,0000.0,0003.80,0010.71,0002.67
2022-07-08 01:11:00,,0830.3,5.00,0.00,29.3,27.9,00.0,38.1,31.3,33.1,0000.0,0003.82,0011.16,0002.71
2022-07-08 01:12:00,,0830.3,5.00,0.00,29.4,28.1,00.0,38.1,31.4,33.0,0000.0,0003.82,0010.75,0002.74
2022-07-08 01:13:00,,0830.3,5.00,0.00,29.4,28.2,00.0,38.1,31.4,32.6,0000.0,0003.87,0010.68,0002.77
2022-07-08 01:14:00,,0830.3,4.99,0.00,29.4,28.4,00.0,38.1,31.5,32.6,0000.0,0003.87,0010.89,0002.78
2022-07-08 01:15:00,,0830.3,5.01,0.00,29.5,28.5,00.0,38.2,31.5,32.1,0000.0,0003.89,0011.02,0002.78
2022-07-08 01:16:00,,0830.3,5.02,0.00,29.5,28.2,00.0,38.1,31.5,32.2,0000.0,0003.91,0010.84,0002.80
2022-07-08 01:17:00,,0830.2,5.00,0.00,29.5,27.5,00.0,38.1,31.4,32.0,0000.0,0003.87,0010.47,0002.80
2022-07-08 01:18:00,,0830.2,4.99,0.00,29.5,27.1,00.0,38.1,31.3,32.1,0000.0,0003.84,0009.63,0002.80
2022-07-08 01:19:00,,0830.2,5.01,0.00,29.4,27.1,00.0,38.1,31.2,32.7,0000.0,0003.82,0009.68,0002.80
2022-07-08 01:20:00,,0830.2,5.00,0.00,29.3,27.2,00.0,38.1,31.2,33.2,0000.0,0003.83,0009.70,0002.81
2022-07-08 01:21:00,,0830.2,4.99,0.00,29.3,27.3,00.0,38.1,31.2,33.2,0000.0,0003.83,0009.69,0002.82
2022-07-08 01:22:00,,0830.2,5.00,0.00,29.3,27.5,00.0,38.1,31.2,33.2,0000.0,0003.82,0008.90,0002.83
2022-07-08 01:23:00,,0830.2,5.00,0.00,29.3,27.7,00.0,38.1,31.3,33.5,0000.0,0003.83,0008.89,0002.87
2022-07-08 01:24:00,,0830.2,4.99,0.00,29.3,27.9,00.0,38.1,31.3,33.3,0000.0,0003.82,0009.01,0002.89
2022-07-08 01:25:00,,0830.2,4.99,0.00,29.4,28.1,00.0,38.1,31.4,33.6,0000.0,0003.85,0009.39,0002.89
2022-07-08 01:26:00,,0830.2,5.00,0.00,29.4,28.2,00.0,38.1,31.4,33.7,0000.0,0003.86,0009.90,0002.90
2022-07-08 01:27:00,,0830.2,5.01,0.00,29.4,28.4,00.0,38.1,31.5,33.8,0000.0,0003.84,0010.09,0002.91
2022-07-08 01:28:00,,0830.2,5.00,0.00,29.5,28.4,00.0,38.2,31.6,33.6,0000.0,0003.84,0011.03,0002.94
2022-07-08 01:29:00,,0830.2,5.01,0.00,29.5,28.0,00.0,38.1,31.5,33.7,0000.0,0003.87,0011.80,0002.99
2022-07-08 01:30:00,,0830.2,5.00,0.00,29.5,27.5,00.0,38.1,31.4,34.0,0000.0,0003.90,0012.08,0003.03
2022-07-08 01:31:00,,0830.3,5.01,0.00,29.5,27.4,00.0,38.1,31.3,34.1,0000.0,0003.94,0012.38,0003.07
2022-07-08 01:32:00,,0830.2,5.00,0.00,29.4,27.5,00.0,38.1,31.3,34.3,0000.0,0003.97,0012.49,0003.09
2022-07-08 01:33:00,,0830.2,5.00,0.00,29.4,27.6,00.0,38.1,31.3,34.5,0000.0,0004.01,0012.76,0003.11
2022-07-08 01:34:00,,0830.2,5.01,0.00,29.4,27.8,00.0,38.1,31.3,34.5,0000.0,0004.02,0013.16,0003.12
2022-07-08 01:35:00,,0830.2,5.00,0.00,29.4,28.0,00.0,38.1,31.4,34.4,0000.0,0004.00,0013.28,0003.13
2022-07-08 01:36:00,,0830.2,5.00,0.00,29.5,28.1,00.0,38.2,31.4,34.2,0000.0,0004.01,0012.77,0003.14
2022-07-08 01:37:00,,0830.3,5.00,0.00,29.5,28.3,00.0,38.2,31.5,34.0,0000.0,0004.06,0012.14,0003.17
2022-07-08 01:38:00,,0830.2,5.00,0.00,29.5,28.4,00.0,38.2,31.6,34.0,0000.0,0004.06,0011.95,0003.18
2022-07-08 01:39:00,,0830.2,5.00,0.00,29.6,28.4,00.0,38.2,31.6,33.9,0000.0,0004.09,0010.73,0003.20
2022-07-08 01:40:00,,0830.2,5.00,0.00,29.6,27.7,00.0,38.1,31.5,33.8,0000.0,0004.12,0010.21,0003.21
2022-07-08 01:41:00,,0830.2,5.00,0.00,29.5,27.1,00.0,38.1,31.4,33.7,0000.0,0004.15,0009.75,0003.21
2022-07-08 01:42:00,,0830.2,5.00,0.00,29.5,26.9,00.0,38.1,31.3,33.8,0000.0,0004.14,0009.44,0003.20
2022-07-08 01:43:00,,0830.2,5.00,0.00,29.4,27.0,00.0,38.1,31.2,34.0,0000.0,0004.13,0009.44,0003.20
2022-07-08 01:44:00,,0830.2,5.01,0.00,29.4,27.2,00.0,38.1,31.2,34.0,0000.0,0004.12,0009.97,0003.19
2022-07-08 01:45:00,,0830.2,5.01,0.00,29.3,27.4,00.0,38.1,31.2,33.9,0000.0,0004.14,0010.18,0003.19
2022-07-08 01:46:00,,0830.2,5.00,0.00,29.3,27.6,00.0,38.1,31.2,33.7,0000.0,0004.17,0009.87,0003.19
2022-07-08 01:47:00,,0830.2,5.01,0.00,29.4,27.8,00.0,38.1,31.3,33.4,0000.0,0004.15,0009.81,0003.19
2022-07-08 01:48:00,,0830.2,5.00,0.00,29.4,27.9,00.0,38.1,31.3,33.0,0000.0,0004.12,0009.62,0003.17
2022-07-08 01:49:00,,0830.2,4.99,0.00,29.4,28.1,00.0,38.1,31.4,33.1,0000.0,0004.12,0009.67,0003.16
2022-07-08 01:50:00,,0830.3,5.00,0.00,29.4,28.3,00.0,38.1,31.5,33.2,0000.0,0004.10,0009.61,0003.15
2022-07-08 01:51:00,,0830.4,5.01,0.00,29.5,28.4,00.0,38.2,31.5,33.2,0000.0,0004.12,0009.58,0003.15
2022-07-08 01:52:00,,0830.5,5.00,0.00,29.5,28.5,00.0,38.2,31.6,33.3,0000.0,0004.14,0009.60,0003.17
2022-07-08 01:53:00,,0830.4,4.98,0.00,29.6,28.4,00.0,38.2,31.6,33.3,0000.0,0004.10,0009.50,0003.17
2022-07-08 01:54:00,,0830.4,5.00,0.00,29.6,27.6,00.0,38.1,31.5,33.4,0000.0,0004.10,0009.35,0003.18
2022-07-08 01:55:00,,0830.4,5.00,0.00,29.5,27.1,00.0,38.1,31.4,33.3,0000.0,0004.10,0008.60,0003.19
2022-07-08 01:56:00,,0830.4,5.00,0.00,29.5,26.9,00.0,38.1,31.2,33.4,0000.0,0004.08,0008.01,0003.19
2022-07-08 01:57:00,,0830.4,5.00,0.00,29.4,27.0,00.0,38.1,31.1,33.6,0000.0,0004.06,0008.02,0003.20
2022-07-08 01:58:00,,0830.4,5.00,0.00,29.3,27.2,00.0,38.1,31.1,33.7,0000.0,0004.02,0008.72,0003.19
2022-07-08 01:59:00,,0830.5,5.01,0.00,29.3,27.4,00.0,38.1,31.2,33.7,0000.0,0004.01,0009.83,0003.20
